STARLINK-37056, 68260

Orbit data source: Space-Track

STARLINK-37056, 68260 is a payload satellite owned by SpaceX/Seattle (US) in LEO that was launched on Tue, 17 Mar 2026 UTC via an FALCON 9 launch vehicle from the Air Force Eastern Test Range (AFETR). Payload-class satellites include a variety of spacecraft equipped with specific instruments for various scientific and technological missions. These include communications satellites like Starlink; space stations such as the ISS; scientific satellites like the Hubble; Earth observation satellites from companies like Planet Labs, Umbra, and HawkEye 360; GPS; miniature CubeSats for education and research; and military/defense satellites.

Loading next visibility...
Identifier
68260, 2026-054AE
Orbit
LEO
Country
Flag of USUS
Related business
Manufacturer
SpaceX/Seattle
Mission
Operational spacecraft
Bus & Motor
STARLINK V2MO, Unknown motor
Mass
575 kg wet, ~530 kg dry
Launch date (UTC)
2026-03-17 (2 months ago)
Launch vehicle
FALCON 9
Launch site
Air Force Eastern Test Range (AFETR)
Object type
Payload
Rocket body
Debris
Shape & HBR
Unknown shape, 17.7 m
Radar Cross Section
RCS unknown

Expand to show TLE details & history
Last TLE update: 7 hours ago

TLE from 7 hours ago
0 STARLINK-37056
1 68260U 26054AE  26145.47347648  .00063140  00000-0  11339-2 0  9993
2 68260  53.1576 296.2552 0001114  70.9038 289.2092 15.49315594 10803
Epoch: 2026-05-25T11:21Z
TLE epoch observation values (Epoch: 2026-05-25T11:21:48.367Z)
Latitude
-0.00001°
Longitude
-117.2571°
Altitude
419.385 km
Speed
7.661 km/s
True Right ascension
19h 45m 01s
True Declination
0° 00' 00"
Sunlit
Object was in full shadow at epoch
Visualization orbit readout
Latitude
Unknown
Longitude
Unknown
Altitude
Unknown
Speed
Unknown
Apparent Right ascension
Unknown
Apparent Declination
Unknown
Sunlit
N/A
Visualization observer readout
Local Sidereal Time
03:49:47
Azimuth
Unknown
Elevation
Unknown
Doppler factor
Unknown
Orbital elements
Apogee altitude
419.743 km
Perigee altitude
418.229 km
Semi-major axis
6,797.123 km
Eccentricity
0.00011
Inclination
53.1576°
RAAN
296.2552°
Arg. of periapsis
70.9038°
True anomaly
289.19714°
Mean anomaly
289.2092°
Eccentric anomaly
289.20317°
Mean motion
3.87307 °/min
Orbital period
92.95 mins
BSTAR
0.0011339
Loading maneuver chart data...
Computing Atmospheric mass density...
Loading historical data...
Loading historical data...
Loading historical data...
Loading historical data...
Loading historical data...
Loading historical data...
Loading historical data...

Documentation

Showing up to 5 results
|